Date String (YYYY-MM-DD hh:mm:ss) UTC,Instrument flags,Ambient pressure (hPa),Sample flow (lpm),Bypass flow (lpm),Sample temperature (°C),Ambient temperature (°C),ASC tube jacket temperature (°C),LED temperature (°C),Box temperature (°C),Sample RH (%),Span deviation,Mass concentration (μg/m³),Mass concentration (μg/m³),Mass concentration (μg/m³)
DateTimeUTC,F1_M11,P_M11,Q1_M11,Q2_M11,T1_M11,T2_M11,T3_M11,T4_M11,T5_M11,U1_M11,ZSPAN_M11,X0_M11,X2_M11,X1_M11
2021-08-23 12:00:00,,0826.8,5.00,0.00,29.0,28.5,00.0,38.2,30.8,20.0,0001.6,0021.09,0014.31,0013.51
2021-08-23 12:01:00,,0826.9,5.00,0.00,29.0,28.5,00.0,38.2,30.8,20.1,0001.6,0022.01,0014.27,0013.47
2021-08-23 12:02:00,,0826.9,5.00,0.00,29.0,28.4,00.0,38.2,30.8,20.1,0001.6,0022.10,0014.19,0013.39
2021-08-23 12:03:00,,0826.9,5.01,0.00,29.0,28.4,00.0,38.2,30.8,20.1,0001.6,0022.26,0014.10,0013.33
2021-08-23 12:04:00,,0827.1,5.00,0.00,29.0,28.4,00.0,38.2,30.8,20.0,0001.5,0022.96,0014.03,0013.25
2021-08-23 12:05:00,,0826.9,5.01,0.00,29.0,28.4,00.0,38.2,30.8,20.1,0001.6,0022.65,0013.96,0013.19
2021-08-23 12:06:00,,0827.0,5.00,0.00,29.0,28.4,00.0,38.2,30.8,20.2,0001.7,0022.20,0013.94,0013.14
2021-08-23 12:07:00,,0827.0,5.00,0.00,29.0,28.4,00.0,38.2,30.8,20.5,0002.0,0021.26,0013.98,0013.15
2021-08-23 12:08:00,,0827.1,4.99,0.00,29.0,28.5,00.0,38.2,30.8,20.4,0002.3,0020.97,0014.06,0013.20
2021-08-23 12:09:00,,0827.0,5.00,0.00,29.0,28.5,00.0,38.2,30.8,20.4,0002.3,0021.11,0014.14,0013.26
2021-08-23 12:10:00,,0827.0,5.02,0.00,29.0,28.5,00.0,38.2,30.8,20.2,0002.3,0021.50,0014.19,0013.31
2021-08-23 12:11:00,,0826.9,5.00,0.00,29.0,28.5,00.0,38.2,30.8,20.1,0002.2,0021.63,0014.22,0013.31
2021-08-23 12:12:00,,0827.0,5.00,0.00,29.0,28.5,00.0,38.2,30.8,20.2,0002.1,0020.63,0014.20,0013.27
2021-08-23 12:13:00,,0827.2,5.01,0.00,29.0,28.5,00.0,38.2,30.8,20.0,0002.3,0020.36,0014.19,0013.23
2021-08-23 12:14:00,,0826.9,4.99,0.00,29.1,28.5,00.0,38.2,30.8,19.9,0002.4,0020.14,0014.17,0013.21
2021-08-23 12:15:00,,0827.0,5.01,0.00,29.1,28.4,00.0,38.2,30.8,19.6,0002.4,0019.35,0014.15,0013.21
2021-08-23 12:16:00,,0827.0,5.00,0.00,29.1,28.4,00.0,38.2,30.9,19.6,0002.2,0019.09,0014.13,0013.19
2021-08-23 12:17:00,,0827.2,4.99,0.00,29.1,28.4,00.0,38.2,30.8,19.7,0002.2,0019.50,0014.11,0013.16
2021-08-23 12:18:00,,0827.3,5.01,0.00,29.0,28.4,00.0,38.2,30.8,19.7,0002.2,0019.48,0014.04,0013.12
2021-08-23 12:19:00,,0827.3,5.01,0.00,29.0,28.4,00.0,38.2,30.8,19.9,0001.9,0019.47,0013.98,0013.06
2021-08-23 12:20:00,,0827.1,4.99,0.00,29.0,28.4,00.0,38.2,30.8,19.8,0002.0,0020.37,0013.88,0012.98
2021-08-23 12:21:00,,0827.2,5.01,0.00,29.0,28.4,00.0,38.2,30.8,19.9,0002.0,0019.97,0013.82,0012.92
2021-08-23 12:22:00,,0827.1,4.98,0.00,29.0,28.4,00.0,38.2,30.8,19.9,0002.0,0019.90,0013.78,0012.89
2021-08-23 12:23:00,,0827.2,5.00,0.00,29.0,28.4,00.0,38.2,30.8,19.7,0002.0,0020.62,0013.70,0012.86
2021-08-23 12:24:00,,0827.0,5.00,0.00,29.0,28.4,00.0,38.2,30.8,19.8,0001.9,0020.63,0013.65,0012.84
2021-08-23 12:25:00,,0827.0,5.01,0.00,29.0,28.5,00.0,38.2,30.8,20.0,0001.9,0020.71,0013.68,0012.87
2021-08-23 12:26:00,,0827.0,5.00,0.00,29.0,28.5,00.0,38.2,30.8,20.4,0001.9,0021.13,0013.93,0013.06
2021-08-23 12:27:00,,0827.1,5.00,0.00,29.0,28.4,00.0,38.2,30.8,20.6,0002.1,0021.60,0014.30,0013.37
2021-08-23 12:28:00,,0827.4,5.00,0.00,29.1,28.5,00.0,38.2,30.8,20.3,0002.2,0021.61,0014.52,0013.56
2021-08-23 12:29:00,,0827.2,5.01,0.00,29.0,28.4,00.0,38.2,30.8,20.2,0002.4,0021.63,0014.57,0013.63
2021-08-23 12:30:00,,0827.1,5.00,0.00,29.0,28.4,00.0,38.2,30.8,20.0,0002.5,0021.63,0014.58,0013.67
2021-08-23 12:31:00,,0827.1,4.99,0.00,29.0,28.4,00.0,38.2,30.8,19.7,0002.4,0021.39,0014.62,0013.69
2021-08-23 12:32:00,,0827.1,5.00,0.00,29.0,28.4,00.0,38.2,30.8,19.6,0002.4,0021.51,0014.60,0013.69
2021-08-23 12:33:00,,0827.1,5.01,0.00,29.0,28.4,00.0,38.2,30.8,19.6,0002.3,0021.57,0014.55,0013.66
2021-08-23 12:34:00,,0827.2,5.00,0.00,29.0,28.4,00.0,38.2,30.8,19.4,0002.5,0021.28,0014.54,0013.61
2021-08-23 12:35:00,,0827.1,5.01,0.00,29.0,28.4,00.0,38.2,30.7,19.9,0002.6,0021.50,0014.50,0013.56
2021-08-23 12:36:00,,0827.2,4.99,0.00,29.0,28.4,00.0,38.2,30.7,20.5,0002.5,0022.35,0014.46,0013.50
2021-08-23 12:37:00,,0827.2,5.01,0.00,29.0,28.4,00.0,38.2,30.7,20.5,0002.4,0022.33,0014.24,0013.29
2021-08-23 12:38:00,,0827.2,5.00,0.00,29.0,28.4,00.0,38.2,30.7,20.2,0002.2,0021.91,0013.91,0013.00
2021-08-23 12:39:00,,0827.2,4.99,0.00,29.0,28.4,00.0,38.2,30.7,20.0,0002.2,0021.50,0013.68,0012.81
2021-08-23 12:40:00,,0827.2,5.01,0.00,29.0,28.4,00.0,38.2,30.7,19.7,0002.0,0021.56,0013.60,0012.73
2021-08-23 12:41:00,,0827.2,5.00,0.00,29.0,28.4,00.0,38.2,30.7,19.4,0002.0,0021.40,0013.55,0012.67
2021-08-23 12:42:00,,0827.2,5.00,0.00,29.0,28.4,00.0,38.2,30.7,19.4,0002.2,0020.67,0013.54,0012.67
2021-08-23 12:43:00,,0827.2,4.99,0.00,29.0,28.4,00.0,38.1,30.8,19.5,0002.3,0020.55,0013.59,0012.70
2021-08-23 12:44:00,,0827.2,5.01,0.00,29.0,28.4,00.0,38.1,30.8,19.4,0002.5,0020.21,0013.64,0012.74
2021-08-23 12:45:00,,0827.2,4.99,0.00,29.0,28.4,00.0,38.1,30.7,19.6,0002.3,0019.70,0013.67,0012.79
2021-08-23 12:46:00,,0827.2,5.00,0.00,29.0,28.4,00.0,38.1,30.7,19.6,0002.3,0019.43,0013.68,0012.81
2021-08-23 12:47:00,,0827.2,5.01,0.00,29.0,28.3,00.0,38.1,30.8,19.6,0002.6,0018.61,0013.66,0012.82
2021-08-23 12:48:00,,0827.2,5.01,0.00,29.0,28.3,00.0,38.1,30.7,19.5,0002.9,0018.56,0013.61,0012.82
2021-08-23 12:49:00,,0827.2,5.00,0.00,29.0,28.3,00.0,38.1,30.7,19.4,0003.1,0018.95,0013.58,0012.79
2021-08-23 12:50:00,,0827.3,5.00,0.00,29.0,28.3,00.0,38.1,30.7,19.3,0003.2,0019.10,0013.64,0012.79
2021-08-23 12:51:00,,0827.2,4.99,0.00,29.0,28.3,00.0,38.1,30.7,19.3,0003.3,0019.00,0013.67,0012.80
2021-08-23 12:52:00,,0827.3,5.00,0.00,29.0,28.4,00.0,38.1,30.7,19.3,0003.2,0019.03,0013.68,0012.81
2021-08-23 12:53:00,,0827.3,5.01,0.00,29.0,28.4,00.0,38.1,30.8,19.3,0003.3,0019.03,0013.68,0012.81
2021-08-23 12:54:00,,0827.3,4.99,0.00,29.0,28.4,00.0,38.1,30.8,19.3,0003.2,0019.11,0013.63,0012.79
2021-08-23 12:55:00,,0827.4,4.99,0.00,29.0,28.4,00.0,38.1,30.8,19.4,0003.1,0019.40,0013.57,0012.74
2021-08-23 12:56:00,,0827.4,5.00,0.00,29.0,28.4,00.0,38.1,30.8,19.6,0003.1,0019.48,0013.53,0012.71
2021-08-23 12:57:00,,0827.4,5.00,0.00,29.0,28.4,00.0,38.1,30.8,19.3,0003.1,0019.56,0013.48,0012.64
2021-08-23 12:58:00,,0827.4,5.01,0.00,29.0,28.4,00.0,38.1,30.8,19.5,0003.0,0019.45,0013.46,0012.60
2021-08-23 12:59:00,,0827.4,4.99,0.00,29.0,28.4,00.0,38.1,30.8,19.6,0002.8,0019.06,0013.42,0012.54
